Change the Weather History Date:

Friday, November 16, 2012

  Actual Average (KDMN) Record (KDMN)
Temperature  
Mean Temperature 48 °F 50 °F  
Max Temperature 62 °F 66 °F 78 °F (1949)
Min Temperature 35 °F 34 °F 16 °F (1956)
Degree Days  
Heating Degree Days 16    
Moisture  
Dew Point 13 °F    
Average Humidity 25    
Maximum Humidity 41    
Minimum Humidity 15    
Precipitation  
Precipitation 0.00 in 0.02 in 0.10 in (1959)
Month to date precipitation 0.31  
Year to date precipitation 10.26  
Sea Level Pressure  
Sea Level Pressure 30.28 in    
Wind  
Wind Speed 6 mph (NE)    
Max Wind Speed 15 mph    
Max Gust Speed 21 mph    
Visibility 10 miles    
Events      
T = Trace of Precipitation, MM = Missing Value Source: NWS Daily Summary

Daily Weather History Graph

Daily Weather History Graph

Search for Another Location

Airport or City:

Trip Planner

Search our weather history database for the weather conditions in past years. The results will help you decide how hot, cold, wet, or windy it might be!

Date:

Astronomy

Nov. 16, 2012 Rise Set
Actual Time 6:43 AM MST 5:10 PM MST
Civil Twilight 6:17 AM MST 5:36 PM MST
Nautical Twilight 5:47 AM MST 6:06 PM MST
Astronomical Twilight 5:18 AM MST 6:36 PM MST
Moon 9:38 AM MST (11/16) 8:15 PM MST (11/16)
Length of Visible Light 11h 19m
Length of Day
10h 26m
Waxing Crescent, 12% of the Moon is Illuminated
Nov 16
Waxing Crescent
Nov 20
First Quarter
Nov 28
Full
Dec 6
Last Quarter
Dec 13
New

Hourly Weather History & Observations

Time (MST) Temp. Windchill Dew Point Humidity Pressure Visibility Wind Dir Wind Speed Gust Speed Precip Events Conditions
12:15 AM 48.2 °F - 14.0 °F 25% 30.30 in 10.0 mi North 5.8 mph - N/A   Clear
12:35 AM 46.4 °F 44.3 °F 14.0 °F 27% 30.30 in 10.0 mi North 4.6 mph - N/A   Clear
12:55 AM 46.4 °F 44.3 °F 14.0 °F 27% 30.30 in 10.0 mi NW 4.6 mph - N/A   Scattered Clouds
1:15 AM 44.6 °F - 12.2 °F 27% 30.30 in 10.0 mi Calm Calm - N/A   Scattered Clouds
1:35 AM 41.0 °F - 12.2 °F 31% 30.30 in 10.0 mi Calm Calm - N/A   Partly Cloudy
1:55 AM 41.0 °F 38.0 °F 10.4 °F 29% 30.30 in 10.0 mi NW 4.6 mph - N/A   Partly Cloudy
2:15 AM 44.6 °F 42.2 °F 10.4 °F 25% 30.29 in 10.0 mi North 4.6 mph - N/A   Mostly Cloudy
2:35 AM 41.0 °F 36.4 °F 10.4 °F 29% 30.29 in 10.0 mi NNE 6.9 mph - N/A   Partly Cloudy
2:55 AM 41.0 °F 36.4 °F 10.4 °F 29% 30.29 in 10.0 mi NNW 6.9 mph - N/A   Mostly Cloudy
3:15 AM 41.0 °F 35.2 °F 10.4 °F 29% 30.29 in 10.0 mi North 9.2 mph - N/A   Mostly Cloudy
3:35 AM 44.6 °F 42.2 °F 10.4 °F 25% 30.28 in 10.0 mi NNE 4.6 mph - N/A   Mostly Cloudy
3:55 AM 41.0 °F 38.0 °F 10.4 °F 29% 30.28 in 10.0 mi NNE 4.6 mph - N/A   Partly Cloudy
4:15 AM 39.2 °F 35.0 °F 10.4 °F 31% 30.28 in 10.0 mi NNW 5.8 mph - N/A   Clear
4:35 AM 37.4 °F 34.9 °F 10.4 °F 33% 30.27 in 10.0 mi North 3.5 mph - N/A   Clear
4:55 AM 39.2 °F 37.0 °F 10.4 °F 31% 30.28 in 10.0 mi North 3.5 mph - N/A   Clear
5:15 AM 37.4 °F 34.9 °F 10.4 °F 33% 30.28 in 10.0 mi North 3.5 mph - N/A   Clear
5:35 AM 37.4 °F 34.9 °F 10.4 °F 33% 30.28 in 10.0 mi NNW 3.5 mph - N/A   Clear
5:55 AM 35.6 °F 32.8 °F 10.4 °F 35% 30.29 in 10.0 mi NW 3.5 mph - N/A   Clear
6:15 AM 37.4 °F - 10.4 °F 33% 30.29 in 10.0 mi Calm Calm - N/A   Clear
6:35 AM 37.4 °F - 10.4 °F 33% 30.29 in 10.0 mi Calm Calm - N/A   Clear
6:55 AM 39.2 °F - 10.4 °F 31% 30.29 in 10.0 mi Calm Calm - N/A   Clear
7:15 AM 41.0 °F 38.0 °F 10.4 °F 29% 30.30 in 10.0 mi NW 4.6 mph - N/A   Clear
7:35 AM 41.0 °F 39.0 °F 12.2 °F 31% 30.30 in 10.0 mi NW 3.5 mph - N/A   Clear
7:55 AM 44.6 °F 42.2 °F 12.2 °F 27% 30.31 in 10.0 mi NW 4.6 mph - N/A   Clear
8:15 AM 46.4 °F 45.2 °F 12.2 °F 25% 30.32 in 10.0 mi NNW 3.5 mph - N/A   Clear
8:35 AM 48.2 °F - 12.2 °F 24% 30.32 in 10.0 mi Calm Calm - N/A   Clear
8:55 AM 51.8 °F - 10.4 °F 19% 30.32 in 4.0 mi Calm Calm - N/A   Haze
9:15 AM 53.6 °F - 10.4 °F 18% 30.33 in 7.0 mi ESE 4.6 mph - N/A   Clear
9:35 AM 55.4 °F - 10.4 °F 17% 30.34 in 9.0 mi SSE 6.9 mph - N/A   Scattered Clouds
9:55 AM 55.4 °F - 12.2 °F 18% 30.34 in 10.0 mi SSE 11.5 mph - N/A   Mostly Cloudy
10:15 AM 57.2 °F - 12.2 °F 17% 30.34 in 10.0 mi SE 10.4 mph - N/A   Mostly Cloudy
10:35 AM 57.2 °F - 12.2 °F 17% 30.33 in 10.0 mi SE 15.0 mph 20.7 mph N/A   Partly Cloudy
10:55 AM 57.2 °F - 14.0 °F 18% 30.32 in 10.0 mi SE 13.8 mph 19.6 mph N/A   Clear
11:15 AM 59.0 °F - 14.0 °F 17% 30.31 in 10.0 mi SE 12.7 mph 17.3 mph N/A   Clear
11:35 AM 59.0 °F - 14.0 °F 17% 30.30 in 10.0 mi SSE 12.7 mph 18.4 mph N/A   Clear
11:55 AM 59.0 °F - 14.0 °F 17% 30.29 in 10.0 mi SSE 12.7 mph 17.3 mph N/A   Clear
12:15 PM 59.0 °F - 14.0 °F 17% 30.27 in 10.0 mi SSE 10.4 mph 16.1 mph N/A   Clear
12:35 PM 60.8 °F - 14.0 °F 16% 30.27 in 10.0 mi SSE 10.4 mph - N/A   Clear
12:55 PM 62.6 °F - 14.0 °F 15% 30.26 in 10.0 mi SSE 12.7 mph 16.1 mph N/A   Clear
1:15 PM 62.6 °F - 15.8 °F 16% 30.25 in 10.0 mi SSE 9.2 mph 16.1 mph N/A   Clear
1:35 PM 62.6 °F - 15.8 °F 16% 30.25 in 10.0 mi SSE 11.5 mph - N/A   Clear
1:55 PM 62.6 °F - 15.8 °F 16% 30.26 in 10.0 mi South 11.5 mph - N/A   Partly Cloudy
2:15 PM 62.6 °F - 15.8 °F 16% 30.25 in 10.0 mi South 9.2 mph - N/A   Scattered Clouds
2:35 PM 62.6 °F - 15.8 °F 16% 30.24 in 10.0 mi South 6.9 mph - N/A   Clear
2:55 PM 62.6 °F - 15.8 °F 16% 30.24 in 10.0 mi SSE 8.1 mph - N/A   Clear
3:15 PM 60.8 °F - 15.8 °F 17% 30.24 in 10.0 mi SSE 9.2 mph - N/A   Clear
3:35 PM 60.8 °F - 15.8 °F 17% 30.25 in 10.0 mi South 9.2 mph - N/A   Partly Cloudy
3:55 PM 60.8 °F - 15.8 °F 17% 30.25 in 10.0 mi SSE 6.9 mph - N/A   Partly Cloudy
4:15 PM 59.0 °F - 15.8 °F 19% 30.25 in 10.0 mi South 6.9 mph - N/A   Partly Cloudy
4:35 PM 59.0 °F - 15.8 °F 19% 30.25 in 10.0 mi SSE 4.6 mph - N/A   Clear
4:55 PM 57.2 °F - 15.8 °F 20% 30.25 in 10.0 mi SSE 4.6 mph - N/A   Clear
5:15 PM 55.4 °F - 15.8 °F 21% 30.24 in 10.0 mi South 3.5 mph - N/A   Clear
5:35 PM 55.4 °F - 15.8 °F 21% 30.24 in 10.0 mi ESE 3.5 mph - N/A   Clear
5:55 PM 51.8 °F - 14.0 °F 22% 30.24 in 10.0 mi ESE 3.5 mph - N/A   Clear
6:15 PM 50.0 °F - 14.0 °F 24% 30.25 in 10.0 mi Calm Calm - N/A   Clear
6:35 PM 48.2 °F - 14.0 °F 25% 30.25 in 10.0 mi ENE 3.5 mph - N/A   Clear
6:55 PM 46.4 °F 43.5 °F 14.0 °F 27% 30.25 in 10.0 mi NNE 5.8 mph - N/A   Clear
7:15 PM 48.2 °F - 14.0 °F 25% 30.26 in 10.0 mi North 5.8 mph - N/A   Clear
7:35 PM 50.0 °F - 15.8 °F 26% 30.26 in 10.0 mi NNE 6.9 mph - N/A   Clear
7:55 PM 48.2 °F - 14.0 °F 25% 30.27 in 10.0 mi NNE 6.9 mph - N/A   Clear
8:15 PM 46.4 °F 42.9 °F 14.0 °F 27% 30.27 in 10.0 mi North 6.9 mph - N/A   Clear
8:35 PM 44.6 °F 42.2 °F 14.0 °F 29% 30.28 in 10.0 mi NNW 4.6 mph - N/A   Clear
8:55 PM 44.6 °F 41.4 °F 15.8 °F 31% 30.28 in 10.0 mi NNE 5.8 mph - N/A   Partly Cloudy
9:15 PM 46.4 °F 42.4 °F 15.8 °F 29% 30.28 in 10.0 mi North 8.1 mph - N/A   Scattered Clouds
9:35 PM 44.6 °F 39.7 °F 15.8 °F 31% 30.28 in 10.0 mi North 9.2 mph - N/A   Partly Cloudy
9:55 PM 44.6 °F 40.2 °F 15.8 °F 31% 30.28 in 10.0 mi North 8.1 mph - N/A   Clear
10:15 PM 42.8 °F 37.5 °F 15.8 °F 34% 30.27 in 10.0 mi North 9.2 mph - N/A   Clear
10:35 PM 42.8 °F 37.5 °F 15.8 °F 34% 30.27 in 10.0 mi NNE 9.2 mph - N/A   Clear
10:55 PM 41.0 °F 35.8 °F 15.8 °F 36% 30.27 in 10.0 mi North 8.1 mph - N/A   Clear
11:15 PM 39.2 °F 33.6 °F 15.8 °F 39% 30.28 in 10.0 mi NW 8.1 mph - N/A   Clear
11:35 PM 39.2 °F 34.2 °F 15.8 °F 39% 30.28 in 10.0 mi NNW 6.9 mph - N/A   Clear
11:55 PM 37.4 °F 32.1 °F 15.8 °F 41% 30.28 in 10.0 mi North 6.9 mph - N/A   Clear